User: anonymous   Login
Location: Unspecified
(0.0000°N, 0.0000°E)
Time: 21:23:07
(UTC+00:00)
Language:

EOS-6 - Orbit

View from above orbital plane
View from above orbital plane
View from above satellite
View from above satellite

Ground track
Ground track

The orbit is defined by the following mean orbital elements,

1 54361U          26145.62008016 +.00000000 +00000-0 +78475-4 0 00008
2 54361  98.3524 244.1153 0002118  75.6572 284.4855 14.46984433    08
Epoch (UTC): 25 May 2026 14:52:54
Eccentricity: 0.0002118
inclination: 98.3524°
perigee height: 734 km
apogee height: 737 km
right ascension of ascending node: 244.1153°
argument of perigee: 75.6572°
revolutions per day: 14.46984433
mean anomaly at epoch: 284.4855°

The dashed part of the orbit path shows where the satellite is in the earth's shadow,  

DLR